Flag for India Weather past 2 weeks in Amritsar, Punjab, India

Now
90 °F

Clear.


Feels Like: 98 °F
Forecast: 72 / 96 °F
Wind: 1 mph from North

Location: Amritsar Airport

Current Time: Sep 21, 2014 at 5:59:32 PM

Latest Report: Sep 21, 2014 at 5:00 PM


Visibility: 4 mi

Pressure: 29.65 "Hg

Humidity: 59%

Dew point: 73 °F

Location of AmritsarLocation

Historic Weather in Amritsar — Graph

°F

Amritsar temperature yesterday

Maximum temperature yesterday: 93 °F (at 12:30 PM)
Minimum temperature yesterday: 75 °F (at 11:00 PM)
Average temperature yesterday: 85 °F

Past Weeks' High & Low Weather Summary

 TemperatureHumidityPressure
High95 °F (Sep 18, 3:00 PM)100% (Sep 6, 11:00 PM)29.80 "Hg (Sep 6, 11:00 PM)
Low72 °F (Sep 17, 6:00 AM)46% (Sep 21, 1:30 PM)29.59 "Hg (Sep 9, 4:30 PM)
Average82 °F84%29.68 "Hg
* Reported Sep 6 4:30 PM — Sep 21 4:30 PM, Amritsar, Weather by CustomWeather, © 2014

Note: Actual official high and low records may vary slightly from our data, if they occured in-between our weather recording intervals... More about our weather records

Advertising

Amritsar weather history for previous 24 hours

 ConditionsComfort  
Time TempWeatherWind HumidityBarometerVisibility
4:30 PM
Sep 21
90 °FClear.5 mph55%29.65 "Hg4 mi
4:00 PM90 °FClear.5 mph52%29.65 "Hg4 mi
3:30 PM90 °FClear.5 mph55%29.65 "Hg4 mi
2:30 PM91 °FClear.1 mph49%29.65 "Hg4 mi
2:00 PM91 °FClear.No wind49%29.65 "Hg4 mi
1:30 PM91 °FClear.No wind46%29.68 "Hg4 mi
1:00 PM88 °FHaze.No wind52%29.68 "Hg4 mi
12:30 PM90 °FHaze.No wind49%29.68 "Hg3 mi
12:00 PM88 °FHaze.No wind52%29.71 "Hg3 mi
11:30 AM86 °FScattered clouds.1 mph59%29.71 "Hg3 mi
11:00 AM86 °FScattered clouds.5 mph59%29.71 "Hg3 mi
10:30 AM84 °FScattered clouds.2 mph62%29.71 "Hg3 mi
10:00 AM84 °FScattered clouds.3 mph66%29.71 "Hg3 mi
9:30 AM81 °FScattered clouds.5 mph74%29.71 "Hg3 mi
9:00 AM77 °FScattered clouds.7 mph79%29.71 "Hg3 mi
8:30 AM77 °FFog.7 mph79%29.74 "Hg2 mi
8:00 AM75 °FFog.10 mph83%29.77 "Hg2 mi
7:30 AM73 °FFog.9 mph94%29.77 "Hg2 mi
6:30 AM73 °FFog.No wind94%29.71 "Hg1 mi
6:00 AM73 °FFog.No wind94%29.68 "Hg1 mi
5:30 AM73 °FFog.No wind94%29.68 "Hg1 mi
5:00 AM73 °FFog.No wind94%29.68 "Hg1 mi
4:30 AM73 °FFog.No wind94%29.65 "Hg1 mi
3:30 AM73 °FFog.No wind94%29.65 "Hg1 mi
3:00 AM73 °FFog.No wind94%29.65 "Hg1 mi
1:30 AM73 °FFog.No wind100%29.65 "Hg1 mi
1:00 AM73 °FFog.2 mph100%29.68 "Hg1 mi
12:30 AM73 °FFog.No wind100%29.68 "Hg1 mi
11:30 PM
Sep 20
75 °FFog.6 mph94%29.65 "Hg2 mi
11:00 PM75 °FFog.No wind94%29.65 "Hg2 mi
6:30 PM82 °FPartly sunny.17 mph66%29.65 "Hg2 mi
6:00 PM90 °FScattered clouds.1 mph71%29.62 "Hg2 mi
5:30 PM91 °FScattered clouds.No wind67%29.59 "Hg2 mi
5:00 PM91 °FScattered clouds.3 mph67%29.59 "Hg2 mi
Weather by CustomWeather, © 2014

See weather overviewHow to use our weather pages